Regional Weather Roundup
Issued by NWS Upton, NY

Current Version | Previous Version | Graphics & Text | Print | Product List | Glossary Off
Versions: 1 2 3 4 5 6 7 8 9 10 11 12 13 14 15 16 17 18 19 20 21 22 23 24 25 26 27 28 29 30 31 32 33 34 35 36 37 38 39 40 41 42 43 44 45 46 47 48 49

000
ASUS41 KOKX 012105
RWROKX

REGIONAL WEATHER ROUNDUP
NATIONAL WEATHER SERVICE NEW YORK NY
400 PM EST SUN MAR 01 2015

NOTE: "FAIR" INDICATES FEW OR NO CLOUDS BELOW 12,000 FEET WITH NO
SIGNIFICANT WEATHER AND/OR OBSTRUCTIONS TO VISIBILITY.

NYZ071-072-176-178-NJZ106-104-012200-
NEW YORK CITY METRO AREA


CITY           SKY/WX    TMP DP  RH WIND       PRES   REMARKS
CENTRAL PARK   SNOW      26  21  81 CALM      30.42F VSB 1/2
LAGUARDIA APRT LGT SNOW  25  22  88 S7        30.41F VSB 3/4 WCI  17
KENNEDY INTL   LGTSLEET  26  22  84 SW3       30.43F
NEWARK/LIBERTY SNOW      25  21  86 S3        30.42F VSB 1/2
BRNX BOT. GARD   N/A    N/A N/A N/A S3        30.41S
TETERBORO      SNOW      24  22  91 CALM      30.41F VSB 1/2
$$

NYZ177-179-078>081-012200-
LONG ISLAND NEW YORK

CITY           SKY/WX    TMP DP  RH WIND       PRES   REMARKS
FARMINGDALE    SNOW      26  23  88 SW3       30.42F VSB 1/2
ISLIP          SNOW      28  24  85 S5        30.40F VSB 1/2 WCI  23
SHIRLEY        LGT SNOW  28  25  88 S7        30.43F VSB 3/4 WCI  21
WESTHAMPTON    SNOW      29  25  85 S3        30.44F VSB 1/2
MONTAUK POINT    N/A     31  27  85 SW5       30.44F WCI  26
$$

NYZ052-065-067-012200-
HUDSON VALLEY

CITY           SKY/WX    TMP DP  RH WIND       PRES   REMARKS
WHITE PLAINS   SNOW      23  20  88 SE6       30.38F VSB 1/4 WCI  16
NEWBURGH       NOT AVBL
MONTGOMERY     SNOW      23  20  88 CALM      30.37F VSB 1/2
POUGHKEEPSIE   SNOW      25  20  81 SW3       30.40F VSB 1/2
ALBANY         LGT SNOW  25  17  72 S12G23    30.34F VSB 1   WCI  14
$$

NJZ001-105-106-008-010-013-015-019>022-104-012200-
NEW JERSEY

CITY           SKY/WX    TMP DP  RH WIND       PRES   REMARKS
NEWARK/LIBERTY SNOW      25  21  86 S3        30.42F VSB 1/2
TETERBORO      SNOW      24  22  91 CALM      30.41F VSB 1/2
CALDWELL       SNOW      23  20  88 CALM      30.42F VSB 1/2
MORRISTOWN     LGT SNOW  23  21  93 SW7       30.43F VSB 1   WCI  15
SOMERVILLE     LGT SNOW  25  21  85 CALM      30.39F VSB 3/4
SUSSEX         SNOW      23  19  85 CALM      30.36F VSB 1/2
ANDOVER          N/A     22  19  89 CALM      30.36F
TRENTON        FRZ RAIN  26  22  84 S5        30.40F FOG     WCI  20
MILLVILLE      FRZ RAIN  30  28  92 VRB3      30.41F FOG
ATLANTIC CITY  FRZ RAIN  30  28  92 S6        30.41F FOG     WCI  24
WRIGHTSTOWN    LGTSLEET  28  26  94 VRB2      30.39F FOG
TOMS RIVER     CLOUDY    28  27  93 CALM      30.42F
BELMAR         CLOUDY    27  19  74 CALM      30.40F
$$

PAZ047>061-062-071-012200-
EASTERN PENNSYLVANIA

CITY           SKY/WX    TMP DP  RH WIND       PRES   REMARKS
PHILADELPHIA   FRZ RAIN  29  26  89 SW5       30.42F FOG     WCI  24
ALLENTOWN      SNOW      25  20  81 CALM      30.37F VSB 1/2
SCRANTON       LGT SNOW  25  19  78 VRB3      30.29F
$$

CTZ002-004>006-009-010-012-RIZ004-006-007-MAZ004-011-015-012200-
SOUTHERN NEW ENGLAND
 IN CT

CITY           SKY/WX    TMP DP  RH WIND       PRES   REMARKS
BRADLEY INTL   LGT SNOW  26  21  81 S8        30.40F VSB 1   WCI  18
HARTFORD       SNOW      26  23  88 S5        30.43F VSB 1/2 WCI  20
DANBURY        SNOW      24  19  81 E3        30.39F VSB 1/2
WTRBRY/OXFORD  LGT SNOW  23  16  74 SW3       30.38F VSB 1
BRIDGEPORT     SNOW      25  24  96 E5        30.42F VSB 1/4 WCI  19
MERIDEN        SNOW      25  22  88 S5        30.42F VSB 1/2 WCI  19
NEW HAVEN      SNOW      25  22  88 E5        30.42F VSB 1/4 WCI  19
CHESTER        LGT SNOW  27  25  93 S6        30.41F VSB 3/4 WCI  20
GROTON         SNOW      26  25  96 SE5       30.43F VSB 1/4 WCI  20
WILLIMANTIC    SNOW      26  22  84 S6        30.42F VSB 1/2 WCI  19

 IN RI

CITY           SKY/WX    TMP DP  RH WIND       PRES   REMARKS
PROVIDENCE     LGT SNOW  27  23  85 S7        30.45F FOG     WCI  19
BLOCK ISLAND   CLOUDY    28  25  86 SW10      30.43F WCI  19
WESTERLY       LGT SNOW  27  25  92 S3        30.44F VSB 3/4

 IN MA

CITY           SKY/WX    TMP DP  RH WIND       PRES   REMARKS
BOSTON         LGT SNOW  27  21  78 S9        30.44F WCI  18
WORCESTER      LGT SNOW  23  19  85 S8        30.35F VSB 1   WCI  14
WESTFIELD      LGT SNOW  24  19  81 S9        30.40F WCI  14
PROVINCETOWN   CLOUDY    27  25  93 S9        30.46F WCI  17
NANTUCKET      LGT SNOW  31  21  66 S9        30.48F WCI  23
$$

ANZ330-335-338-340-345-350-353-355-012200-
COASTAL MARINE OBSERVATIONS


STATION/POSITION TIME  SKY/WX   TEMP    WIND        PRES    VSBY  WAVE
                                AIR SEA DIR/SP/G                  HT/PER
                 (UTC)          (F)     (DEG/KT/KT) (MB)    (MI)  (FT/S)
NY HARB ENTRANCE 2100            27 38  190/  4/  4 1029.9          2/ 9
4S FIRE IS       NOT AVBL
20S FIRE ISLAND  2000               37              1032.5          2/ 8
23SW MTP         2100                                 N/A           2/ 4
HUDSON CANYON    NOT AVBL
EXECUTION ROCKS  NOT AVBL
WESTERN LI SOUND NOT AVBL
CENTRAL LI SOUND NOT AVBL
EASTERN LI SOUND NOT AVBL
ROBBINS REEF     2100            24     170/  6/  8 1028.9
$$


>>>>>>>>>>>>>>>>>>>>>>>>>>>> KEY <<<<<<<<<<<<<<<<<<<<<<<<<<<
>                                                          <
>     SKY/WX - SKY CONDITION/PRESENT WEATHER               <
>     TMP    - TEMPERATURE IN FAHRENHEIT                   <
>     DP     - DEWPOINT IN FAHRENHEIT                      <
>     RH     - RELATIVE HUMIDITY IN PERCENT                <
>     WIND   - DIRECTION AND SPEED IN MPH                  <
>     PRES   - MEAN SEA LEVEL PRESSURE IN INCHES OF HG     <
>     WCI    - WIND CHILL INDEX                            <
>     VSB    - VISIBILITY IN MILES                         <
>     HX     - HEAT INDEX                                  <
>     TC     - TEMPERATURE IN CELSIUS                      <
>     VRB    - VARIABLE WIND DIRECTION                     <
>                                                          <
>>>>>>>>>>>>>>>>>>>>>>>>>>>> KEY <<<<<<<<<<<<<<<<<<<<<<<<<<<





USA.gov is the U.S. government's official web portal to all federal, state and local government web resources and services.